Angel Fire, NM

3:01 PM MST on December 13, 2017 (GMT -0700)
Angel Fire

Weather History for KAXX - July, 2013

Change the Weather History Date:

Monday, July 22, 2013

  Actual Average (KSKX) Record (KSKX)
Temperature  
Mean Temperature 60 °F -  
Max Temperature 79 °F 81 °F 91 °F (2003)
Min Temperature 42 °F 49 °F 48 °F (1999)
Degree Days  
Heating Degree Days 4    
Growing Degree Days 10 (Base 50)    
Moisture  
Dew Point 44 °F    
Average Humidity 60    
Maximum Humidity 97    
Minimum Humidity 18    
Precipitation  
Precipitation 0.00 in - - ()
Sea Level Pressure  
Sea Level Pressure 30.34 in    
Wind  
Wind Speed 1 mph (SE)    
Max Wind Speed 9 mph    
Max Gust Speed -    
Visibility 10 miles    
Events      
Averages and records for this station are not official NWS values.
T = Trace of Precipitation, MM = Missing Value Source: NWS Daily Summary

Daily Weather History Graph

Daily Weather History Graph

Search for Another Location

Airport or City:

Trip Planner

Search our weather history database for the weather conditions in past years. The results will help you decide how hot, cold, wet, or windy it might be!

Date:

Astronomy

Jul. 22, 2013 Rise Set
Actual Time 6:00 AM MDT 8:14 PM MDT
Civil Twilight 5:30 AM MDT 8:43 PM MDT
Nautical Twilight 4:55 AM MDT 9:19 PM MDT
Astronomical Twilight 4:16 AM MDT 9:58 PM MDT
Moon 8:05 PM MDT (7/22) 5:57 AM MDT (7/22)
Length of Visible Light 15h 12m
Length of Day
14h 14m
Full, 100% of the Moon is Illuminated
Jul 22
Full
Jul 22
Full
Jul 29
Last Quarter
Aug 6
New
Aug 14
First Quarter

Hourly Weather History & Observations

Time (MDT) Temp. Dew Point Humidity Pressure Visibility Wind Dir Wind Speed Gust Speed Precip Events Conditions
12:15 AM 52.2 °F 49.1 °F 89% 30.37 in 10.0 mi Calm Calm - N/A   Clear
12:35 AM 52.2 °F 50.0 °F 92% 30.37 in 10.0 mi Calm Calm - N/A   Clear
12:55 AM 51.8 °F 49.6 °F 92% 30.37 in 10.0 mi Calm Calm - N/A   Clear
1:15 AM 50.4 °F 48.4 °F 93% 30.37 in 10.0 mi Calm Calm - N/A   Clear
1:35 AM 50.4 °F 47.7 °F 90% 30.36 in 10.0 mi Calm Calm - N/A   Clear
1:55 AM 48.4 °F 46.4 °F 93% 30.36 in 10.0 mi Calm Calm - N/A   Clear
2:15 AM 49.5 °F 46.2 °F 89% 30.35 in 10.0 mi Calm Calm - N/A   Clear
2:35 AM 47.3 °F 45.5 °F 93% 30.35 in 10.0 mi Calm Calm - N/A   Clear
2:55 AM 48.0 °F 46.4 °F 94% 30.35 in 10.0 mi Calm Calm - N/A   Clear
3:15 AM 47.3 °F 46.0 °F 95% 30.35 in 10.0 mi Calm Calm - N/A   Clear
3:35 AM 46.8 °F 45.3 °F 95% 30.35 in 10.0 mi Calm Calm - N/A   Clear
3:55 AM 47.1 °F 45.7 °F 95% 30.35 in 10.0 mi Calm Calm - N/A   Clear
4:15 AM 46.4 °F 45.3 °F 96% 30.35 in 10.0 mi Calm Calm - N/A   Clear
4:35 AM 45.7 °F 44.6 °F 96% 30.35 in 10.0 mi Calm Calm - N/A   Clear
4:55 AM 45.3 °F 44.1 °F 95% 30.34 in 10.0 mi Calm Calm - N/A   Clear
5:15 AM 44.1 °F 43.0 °F 96% 30.35 in 10.0 mi Calm Calm - N/A   Clear
5:35 AM 45.0 °F 43.9 °F 96% 30.35 in 10.0 mi Calm Calm - N/A   Clear
5:55 AM 43.0 °F 42.1 °F 97% 30.36 in 10.0 mi Calm Calm - N/A   Clear
6:15 AM 43.3 °F 42.3 °F 96% 30.36 in 10.0 mi Calm Calm - N/A   Clear
6:35 AM 42.3 °F 41.2 °F 96% 30.36 in 10.0 mi Calm Calm - N/A   Clear
6:55 AM 44.1 °F 43.3 °F 97% 30.36 in 10.0 mi Calm Calm - N/A   Clear
7:35 AM 48.4 °F 46.0 °F 92% 30.37 in 10.0 mi Calm Calm - N/A   Clear
8:35 AM 55.2 °F 48.6 °F 78% 30.37 in 10.0 mi Calm Calm - N/A   Clear
8:55 AM 56.8 °F 48.9 °F 75% 30.37 in 10.0 mi Calm Calm - N/A   Clear
9:15 AM 58.6 °F 49.6 °F 72% 30.37 in 10.0 mi Calm Calm - N/A   Clear
9:35 AM 59.9 °F 48.4 °F 66% 30.36 in 10.0 mi Calm Calm - N/A   Clear
9:55 AM 62.6 °F 48.9 °F 61% 30.35 in 10.0 mi Calm Calm - N/A   Clear
10:15 AM 65.5 °F 47.5 °F 52% 30.35 in 10.0 mi Calm Calm - N/A   Clear
10:35 AM 68.2 °F 43.9 °F 41% 30.35 in 10.0 mi Calm Calm - N/A   Clear
10:55 AM 69.3 °F 45.9 °F 43% 30.35 in 10.0 mi Calm Calm - N/A   Clear
11:15 AM 72.1 °F 43.2 °F 35% 30.35 in 10.0 mi Calm Calm - N/A   Clear
11:35 AM 73.8 °F 40.5 °F 30% 30.33 in 10.0 mi Calm Calm - N/A   Clear
11:55 AM 75.2 °F 42.1 °F 30% 30.33 in 10.0 mi Calm Calm - N/A   Clear
12:15 PM 76.5 °F 34.0 °F 21% 30.33 in 10.0 mi Calm Calm - N/A   Clear
12:35 PM 77.2 °F 34.9 °F 22% 30.32 in 10.0 mi Calm Calm - N/A   Clear
12:55 PM 78.4 °F 35.8 °F 21% 30.32 in 10.0 mi Calm Calm - N/A   Clear
1:15 PM 78.1 °F 33.3 °F 20% 30.32 in 10.0 mi Calm Calm - N/A   Clear
1:35 PM 79.7 °F 32.7 °F 18% 30.32 in 10.0 mi SSE 5.8 mph - N/A   Clear
1:55 PM 79.3 °F 32.5 °F 18% 30.32 in 10.0 mi Calm Calm - N/A   Clear
2:15 PM 79.0 °F 41.0 °F 26% 30.31 in 10.0 mi SE 9.2 mph - N/A   Clear
2:35 PM 78.4 °F 36.0 °F 22% 30.31 in 10.0 mi Calm Calm - N/A   Mostly Cloudy
2:55 PM 77.0 °F 36.3 °F 23% 30.30 in 10.0 mi South 6.9 mph - N/A   Scattered Clouds
3:15 PM 78.6 °F 37.4 °F 23% 30.30 in 10.0 mi ESE 5.8 mph - N/A   Clear
3:35 PM 77.5 °F 39.6 °F 26% 30.30 in 10.0 mi ESE 8.1 mph - N/A   Scattered Clouds
3:55 PM 78.8 °F 37.0 °F 22% 30.30 in 10.0 mi ESE 8.1 mph - N/A   Overcast
4:15 PM 77.5 °F 39.2 °F 25% 30.30 in 10.0 mi East 8.1 mph - N/A   Mostly Cloudy
4:35 PM 78.6 °F 36.9 °F 22% 30.30 in 10.0 mi East 9.2 mph - N/A   Scattered Clouds
4:55 PM 77.9 °F 35.8 °F 22% 30.30 in 10.0 mi ESE 8.1 mph - N/A   Scattered Clouds
5:15 PM 75.9 °F 40.3 °F 28% 30.30 in 10.0 mi ESE 3.5 mph - N/A   Scattered Clouds
5:35 PM 75.0 °F 40.8 °F 29% 30.30 in 10.0 mi East 3.5 mph - N/A   Clear
5:55 PM 75.9 °F 37.6 °F 25% 30.30 in 10.0 mi Calm Calm - N/A   Scattered Clouds
6:15 PM 74.1 °F 47.5 °F 39% 30.30 in 10.0 mi Calm Calm - N/A   Mostly Cloudy
6:35 PM 71.2 °F 49.6 °F 46% 30.30 in 10.0 mi SW 3.5 mph - N/A   Overcast
6:55 PM 72.5 °F 45.3 °F 38% 30.31 in 10.0 mi Calm Calm - N/A   Mostly Cloudy
7:15 PM 70.7 °F 48.6 °F 45% 30.32 in 10.0 mi Calm Calm - N/A   Clear
7:35 PM 69.8 °F 46.9 °F 44% 30.32 in 10.0 mi Calm Calm - N/A   Mostly Cloudy
7:55 PM 70.0 °F 46.2 °F 43% 30.32 in 10.0 mi Calm Calm - N/A   Overcast
8:15 PM 64.6 °F 52.2 °F 64% 30.33 in 10.0 mi West 3.5 mph - N/A   Mostly Cloudy
8:35 PM 63.5 °F 50.4 °F 62% 30.33 in 10.0 mi WSW 3.5 mph - N/A   Scattered Clouds
8:55 PM 61.9 °F 48.7 °F 62% 30.33 in 10.0 mi Calm Calm - N/A   Clear
9:15 PM 60.4 °F 49.5 °F 67% 30.35 in 10.0 mi Calm Calm - N/A   Clear
9:35 PM 59.4 °F 49.8 °F 71% 30.35 in 10.0 mi Calm Calm - N/A   Clear
9:55 PM 59.2 °F 47.3 °F 65% 30.36 in 10.0 mi Calm Calm - N/A   Clear
10:15 PM 59.5 °F 46.2 °F 61% 30.36 in 10.0 mi Calm Calm - N/A   Clear
10:35 PM 57.9 °F 46.6 °F 66% 30.37 in 10.0 mi Calm Calm - N/A   Clear
10:55 PM 55.4 °F 48.7 °F 78% 30.37 in 10.0 mi Calm Calm - N/A   Clear
11:15 PM 54.5 °F 49.8 °F 84% 30.37 in 10.0 mi Calm Calm - N/A   Clear
11:35 PM 54.5 °F 49.3 °F 83% 30.38 in 10.0 mi Calm Calm - N/A   Clear
11:55 PM 54.5 °F 48.6 °F 80% 30.38 in 10.0 mi SSE 5.8 mph - N/A   Clear